User: anonymous   Login
Location: Unspecified
(0.0000°N, 0.0000°E)
Time: 20:06:37
(UTC+00:00)
Language:

AO-27 - Orbit

View from above orbital plane
View from above orbital plane
View from above satellite
View from above satellite

Ground track
Ground track

The orbit data is extracted from the following two-line orbital elements,

1 22825U 93061C   19340.91756016 +.00000005 +00000-0 +20006-4 0  9997
2 22825 098.9163 333.5755 0007772 214.9329 145.1343 14.30072868366152
Epoch (UTC): 06 December 2019 22:01:17
Eccentricity: 0.0007772
inclination: 98.9163°
perigee height: 786 km
apogee height: 797 km
right ascension of ascending node: 333.5755°
argument of perigee: 214.9329°
revolutions per day: 14.30072868
mean anomaly at epoch: 145.1343°
orbit number at epoch: 36615

The dashed part of the orbit path shows where the satellite is in the earth's shadow,  

DLR